Showing default

LIDE, 64869

Orbit data source: Space-Track

LIDE, 64869 is an Italian payload satellite in SSO that was launched on Wed, 23 Jul 2025 UTC via an FALCON 9 launch vehicle from the Air Force Western Test Range (AFWTR). Payload-class satellites include a variety of spacecraft equipped with specific instruments for various scientific and technological missions. These include communications satellites like Starlink; space stations such as the ISS; scientific satellites like the Hubble; Earth observation satellites from companies like Planet Labs, Umbra, and HawkEye 360; GPS; miniature CubeSats for education and research; and military/defense satellites.

Loading next visibility...
Identifier
64869, 2025-154A
Orbit
SSO
Country
Flag of ITIT
Related business
Manufacturer
Tyvak Intl
Mission
Operational spacecraft
Bus & Motor
CUBESAT 12U, Unknown motor
Mass
~15 kg wet, ~15 kg dry
Launch date (UTC)
2025-07-23 (1 month ago)
Launch vehicle
FALCON 9
Launch site
Air Force Western Test Range (AFWTR)
Object type
Payload
Rocket body
Debris
Shape & HBR
Unknown
Radar Cross Section
Medium (>0.1 m² and <1 m²)

Expand to show TLE details & history
Last TLE update: 6 hours ago

TLE from 6 hours ago
0 LIDE
1 64869U 25154A   25242.90299288  .00005467  00000-0  54755-3 0  9993
2 64869  97.7104 308.1639 0007238 115.2446 244.9524 14.91763592  5682
Epoch: 2025-08-30T21:40Z
TLE epoch observation values (Epoch: 2025-08-30T21:40:18.584Z)
Latitude
-0.00003°
Longitude
3.75585°
Altitude
597.619 km
Speed
7.56 km/s
True Right ascension
20h 32m 39s
True Declination
0° 00' 00"
Sunlit
Object was in full shadow at epoch
Visualization orbit readout
Latitude
Unknown
Longitude
Unknown
Altitude
Unknown
Speed
Unknown
Apparent Right ascension
Unknown
Apparent Declination
Unknown
Sunlit
N/A
Visualization observer readout
Local Sidereal Time
19:17:20
Azimuth
Unknown
Elevation
Unknown
Doppler factor
Unknown
Orbital elements
Apogee altitude
594.496 km
Perigee altitude
584.41 km
Semi-major axis
6,967.59 km
Eccentricity
0.00072
Inclination
97.7104°
RAAN
308.1639°
Arg. of periapsis
115.2446°
True anomaly
244.87729°
Mean anomaly
244.9524°
Eccentric anomaly
244.91484°
Mean motion
3.73181 °/min
Orbital period
96.47 mins
BSTAR
0.00054755
Loading maneuver chart data...
Computing Atmospheric mass density...
Loading historical data...
Loading historical data...
Loading historical data...
Loading historical data...
Loading historical data...
Loading historical data...
Loading historical data...

Documentation

Showing up to 5 results
|